Regional Weather Roundup
Issued by NWS Sterling, VA

Home | Current Version | Previous Version | Text Only | Print | Product List | Glossary On
Versions: 1 2 3 4 5 6 7 8 9 10 11 12 13 14 15 16 17 18 19 20 21 22 23 24 25 26 27 28 29 30 31 32 33 34 35 36 37 38 39 40 41 42 43 44 45 46 47 48 49 50
000
ASUS41 KLWX 032110
RWRLWX

REGIONAL WEATHER ROUNDUP
NATIONAL WEATHER SERVICE BALTIMORE MD/WASHINGTON DC
500 PM EDT THU SEP 03 2015

Note: "FAIR" indicates few or no clouds below 12,000 feet
with no significant weather and/or obstructions to visibility.
 TC=TEMPERATURE CELSIUS

 * =Non NWS site. Station does not report precipitation (e.g. rain,
    snow, etc.), thunder, or fog.

DCZ001-MDZ009-015-VAZ040>042-051-053>054-032200-
WASHINGTON METRO

CITY           SKY/WX    TMP DP  RH WIND       PRES   REMARKS
WASHINGTON NAT MOSUNNY   91  66  43 NE5       29.84F HX  94
DULLES         MOSUNNY   93  63  36 W7        29.85F HX  94
ANDREWS AFB    MOSUNNY   86  73  66 SE5       29.86R THUNDER HX  93
FT BELVOIR     SUNNY     93  64  38 NW9       29.83F HX  95
QUANTICO       MOSUNNY   94  65  38 NW6       29.85F HX  96
COLLEGE PARK*  PTSUNNY   91  64  40 E3        29.83F HX  93
LEESBURG*      MOSUNNY   93  68  43 W5        29.87F HX  97
MANASSAS*      SUNNY     90  64  43 NW7       29.86S HX  91
GAITHERSBURG*  MOSUNNY   90  66  45 CALM      29.90S HX  92

$$

MDZ006>007-011-014-032200-
BALTIMORE METRO

CITY           SKY/WX    TMP DP  RH WIND       PRES   REMARKS
BWI AIRPORT    MOSUNNY   93  65  39 VRB3      29.84S HX  95
MD SCIENCE CTR   N/A     93  65  39 MISG      29.84S HX  95
MARTIN STATE   MOSUNNY   90  75  62 SE6       29.85  HX 100
ANNAPOLIS      MOSUNNY   86  74  67 SE8       29.84F HX  94
FORT MEADE*    MOSUNNY   88  70  55 S8        29.86S HX  92

$$

MDZ012-015-019>023-032200-
MARYLAND EASTERN SHORE

CITY           SKY/WX    TMP DP  RH WIND       PRES   REMARKS
OCEAN CITY     SUNNY     84  70  62 S5        29.84F
SALISBURY      MOSUNNY   88  70  55 W6        29.83F HX  93
BAY BRIDGE AP*   N/A     90  63  40 CALM      29.84S HX  90
CAMBRIDGE*     SUNNY     86  64  48 W3        29.84S
EASTON*        MOSUNNY   91  68  46 NW7       29.88F HX  95

$$

MDZ017>025-032200-
SOUTHERN MARYLAND

CITY           SKY/WX    TMP DP  RH WIND       PRES   REMARKS
PATUXENT RIVER PTSUNNY   88  71  57 NW5       29.85S HX  94
ST INIGOES     MOSUNNY   89  71  55 W5        29.84F HX  95
LEONARDTOWN*   NOT AVBL

$$

MDZ003>005-032200-
NORTH CENTRAL MARYLAND

CITY           SKY/WX    TMP DP  RH WIND       PRES   REMARKS
FREDERICK*     SUNNY     90  70  51 NW7       29.88F HX  95
HAGERSTOWN APT PTSUNNY   87  67  51 SW7       29.88F HX  90
WESTMINSTER*   MOSUNNY   90  66  45 N3        29.88F HX  92

$$

MDZ501>502-032200-
WESTERN MARYLAND

CITY           SKY/WX    TMP DP  RH WIND       PRES   REMARKS
OAKLAND*       MOSUNNY   70  66  88 W5        30.06R
CUMBERLAND*    MOSUNNY   81  68  65 CALM      29.94S

$$

VAZ025>031-032200-
SHENANDOAH VALLEY

CITY           SKY/WX    TMP DP  RH WIND       PRES   REMARKS
WINCHESTER*    PTSUNNY   88  64  45 N3        29.88S
FRONT ROYAL*   FAIR      84  70  61 CALM      29.88S
LURAY*         FAIR      81  70  69 S3        29.90F
NEW MARKET*    FAIR      80  69  69 CALM      29.90S
STAUNTON*      PTSUNNY   83  63  50 CALM      29.95F
WAYNESBORO*    FAIR      84  65  52 CALM      29.95S

$$

WVZ021-048>050-054>055-032200-
EASTERN WEST VIRGINIA PANHANDLE

CITY           SKY/WX    TMP DP  RH WIND       PRES   REMARKS
MARTINSBURG    PTSUNNY   90  63  40 NW8       29.88F HX  91
PETERSBURG*    MOSUNNY   83  71  66 CALM      29.91F

$$

VAZ036>039-050-032200-
CENTRAL FOOTHILLS

CITY           SKY/WX    TMP DP  RH WIND       PRES   REMARKS
CHARLOTTESVILL MOSUNNY   86  68  54 NW6       29.88F
CULPEPER*      MOSUNNY   83  67  59 NW5       29.87F
ORANGE*        MOSUNNY   91  64  40 W5        29.88F HX  93
GORDONSVILLE*  FAIR      91  65  42 CALM      29.86F HX  93
WARRENTON*     FAIR      89  70  52 NW6       29.86F HX  94

$$

VAZ055>057-032200-
NORTH AND CENTRAL PIEDMONT

CITY           SKY/WX    TMP DP  RH WIND       PRES   REMARKS
FREDERICKSBRG* SUNNY     92  66  42 N5        29.84F HX  95
STAFFORD*      SUNNY     92  63  37 NE3       29.89F HX  93

$$

NCZ024-NYZ072-PAZ021-071-VAZ022-071-032200-
OTHER REGIONAL OBSERVATIONS

CITY           SKY/WX    TMP DP  RH WIND       PRES   REMARKS
NEW YORK CITY  SUNNY     92  56  29 VRB6      29.85F HX  90
PHILADELPHIA   MOSUNNY   94  61  33 N12G20    29.83S HX  94
PITTSBURGH     PTSUNNY   89  62  40 NW6       29.92F
ROANOKE        PTSUNNY   83  62  49 N9        29.95F
RICHMOND       MOSUNNY   92  66  42 NE3       29.86S HX  94
RALEIGH        PTSUNNY   90  67  46 W6        29.90F HX  93

$$

ANZ530>537-032200-
MARINE OBSERVATIONS

STATION/POSITION TIME  TEMP    WIND        PRES
                       AIR SEA DIR/SP/G
                 (UTC) (F)     (DEG/KT/KT) (MB)
THOMAS PT LIGHT  2000   85 81  150/  3/  3   N/A
BALT KEY BRIDGE  2000   84     120/  8/  9 1010.4F
COVE POINT       2000   83     200/  4/  4 1011.7F
LEWISETTA        2000   85 82   80/  5/  7 1010.6F
SOLOMONS ISLAND  2000      83                N/A
PINEY POINT      2035          190/  1/  2   N/A

$$




USA.gov is the U.S. government's official web portal to all federal, state and local government web resources and services.